Darstellungsparameter: Aktuell verwendete Einstellungen:
Skalierung der Graphiken ... ?
xyx+y,   Skalierungsfaktor:      Skalierung: Modus: x, Faktor: 1
Darstellungszeitraum ... ?
Vom - - bis: - -   Zeitraum: 03.02.2020 - 02.08.2020
Min/Max/Avg-Anzeige ... ?
Zeige MMA aktuell
Zeige MMA Monat
Zeige MMA alles
Zeige --A aktuell
Zeige --A Monat
Zeige --A alles
Keine MMA-Anzeige
MMA:
Keine MMA-Graphiken
MMA-Basis: 03.02.2020 - 02.08.2020
Quicknavigation für Darstellung... ?
Tage:      1T, 2T, 3T, 5T -1T -2T -3T -5T +1T +2T +3T +5T
Wochen: 1W, 2W, 3W -1W -2W -3W +1W +2W +3W
Monate: 1M, 3M, 6M -1M -3M -6M +1M +3M +6M
Jahre:    1J, 3J, 5J, 10J -1J -3J -5J -10J +1J +3J +5J +10J
Nutze für die Darstellung ... ?
Originaldaten oder ...
Mittelwerte Minima Maxima auf...
Stundenbasis Tagesbasis Wochenbasis
Monatsbasis Jahresbasis      Datenbasis: Mittelwerte auf Tagesbasis
Darstellen als:
Statistik (Auto) Statistik J:M      Darstellung:
Zur Graphik,    zurück zur Übersicht aller Sensoren.
 
Tabellarische Datenbersicht: ?
 
Sensor: Nr:Datum:Temp:Feuchte:Taupunkt:
Aussen-T/F 1 03-02-2020 00:00:00 10.60417 C 82.2847 % 7.71 C
2 04-02-2020 00:00:00 5.02986 C 89.6736 % 3.48 C
3 05-02-2020 00:00:00 3.76389 C 88.0764 % 1.98 C
4 06-02-2020 00:00:00 0.78437 C 93.4340 % -0.15 C
5 07-02-2020 00:00:00 0.2559 C 95.0521 % -0.44 C
6 08-02-2020 00:00:00 1.77708 C 94.2569 % 0.95 C
7 09-02-2020 00:00:00 8.82708 C 82.6076 % 6.03 C
8 10-02-2020 00:00:00 8.29444 C 82.5104 % 5.5 C
9 11-02-2020 00:00:00 5.77535 C 73.1319 % 1.35 C
10 12-02-2020 00:00:00 4.81875 C 81.1910 % 1.87 C
11 13-02-2020 00:00:00 4.01076 C 92.9375 % 2.97 C
12 14-02-2020 00:00:00 6.17951 C 91.1042 % 4.84 C
13 15-02-2020 00:00:00 6.23438 C 89.5347 % 4.64 C
14 16-02-2020 00:00:00 14.59028 C 64.9583 % 8.08 C
15 17-02-2020 00:00:00 8.54375 C 82.6597 % 5.77 C
16 18-02-2020 00:00:00 7.24965 C 80.2083 % 4.07 C
17 19-02-2020 00:00:00 6.24514 C 77.9688 % 2.7 C
18 20-02-2020 00:00:00 8.16562 C 82.5000 % 5.37 C
19 21-02-2020 00:00:00 5.17604 C 82.3542 % 2.42 C
20 22-02-2020 00:00:00 8.05035 C 78.1007 % 4.47 C
21 23-02-2020 00:00:00 10.5066 C 86.7535 % 8.4 C
22 24-02-2020 00:00:00 8.10972 C 87.2431 % 6.12 C
23 25-02-2020 00:00:00 9.07813 C 81.3194 % 6.05 C
24 26-02-2020 00:00:00 4.86319 C 80.5799 % 1.81 C
25 27-02-2020 00:00:00 2.97813 C 90.2500 % 1.54 C
Sensor: Nr:Datum:Temp:Feuchte:Taupunkt:
Aussen-T/F 26 28-02-2020 00:00:00 3.97257 C 87.1111 % 2.03 C
27 29-02-2020 00:00:00 8.92083 C 83.1944 % 6.23 C
28 01-03-2020 00:00:00 7.55313 C 83.2500 % 4.9 C
29 02-03-2020 00:00:00 6.27882 C 88.9965 % 4.6 C
30 03-03-2020 00:00:00 4.69236 C 88.6910 % 2.99 C
31 04-03-2020 00:00:00 5.49583 C 85.8333 % 3.32 C
32 05-03-2020 00:00:00 6.08229 C 93.0486 % 5.05 C
33 06-03-2020 00:00:00 6.29896 C 90.4271 % 4.85 C
34 07-03-2020 00:00:00 6.57396 C 78.9375 % 3.19 C
35 08-03-2020 00:00:00 9.63993 C 76.9618 % 5.8 C
36 09-03-2020 00:00:00 7.99514 C 81.5208 % 5.03 C
37 10-03-2020 00:00:00 9.51076 C 90.5833 % 8.05 C
38 11-03-2020 00:00:00 14.09028 C 86.0660 % 11.8 C
39 12-03-2020 00:00:00 11.24514 C 72.6007 % 6.51 C
40 13-03-2020 00:00:00 7.37569 C 76.2951 % 3.49 C
41 14-03-2020 00:00:00 6.05799 C 83.2604 % 3.44 C
42 15-03-2020 00:00:00 8.92639 C 74.2326 % 4.6 C
43 16-03-2020 00:00:00 9.3 C 80.2431 % 6.08 C
44 17-03-2020 00:00:00 11.38021 C 79.9722 % 8.05 C
45 18-03-2020 00:00:00 9.96493 C 82.5590 % 7.14 C
46 19-03-2020 00:00:00 12.13646 C 76.1042 % 8.06 C
47 20-03-2020 00:00:00 10.33299 C 84.0660 % 7.76 C
48 21-03-2020 00:00:00 6.16667 C 76.4236 % 2.34 C
49 22-03-2020 00:00:00 4.50243 C 57.8438 % -3.06 C
50 23-03-2020 00:00:00 2.99688 C 55.3889 % -5.05 C
Sensor: Nr:Datum:Temp:Feuchte:Taupunkt:
Aussen-T/F 51 24-03-2020 00:00:00 2.86181 C 56.4375 % -4.93 C
52 25-03-2020 00:00:00 3.75208 C 52.7257 % -4.99 C
53 26-03-2020 00:00:00 5.07118 C 57.3819 % -2.64 C
54 27-03-2020 00:00:00 7.93715 C 66.7500 % 2.15 C
55 28-03-2020 00:00:00 9.59861 C 66.6528 % 3.71 C
56 29-03-2020 00:00:00 5.44891 C 69.6413 % 0.36 C
57 30-03-2020 00:00:00 2.775 C 64.1319 % -3.31 C
58 31-03-2020 00:00:00 5.47118 C 66.1771 % -0.32 C
59 01-04-2020 00:00:00 3.8184 C 62.2569 % -2.72 C
60 02-04-2020 00:00:00 5.06042 C 67.9931 % -0.35 C
61 03-04-2020 00:00:00 8.20382 C 67.0382 % 2.46 C
62 04-04-2020 00:00:00 6.78958 C 68.9722 % 1.51 C
63 05-04-2020 00:00:00 9.49479 C 65.0729 % 3.27 C
64 06-04-2020 00:00:00 12.0434 C 60.3299 % 4.61 C
65 07-04-2020 00:00:00 13.80521 C 67.0417 % 7.8 C
66 08-04-2020 00:00:00 14.48472 C 65.0764 % 8.01 C
67 09-04-2020 00:00:00 15.29167 C 62.6840 % 8.22 C
68 10-04-2020 00:00:00 14.13646 C 66.3542 % 7.96 C
69 11-04-2020 00:00:00 14.06563 C 57.0417 % 5.7 C
70 12-04-2020 00:00:00 15.15174 C 60.2361 % 7.51 C
71 13-04-2020 00:00:00 9.40139 C 69.2118 % 4.05 C
72 14-04-2020 00:00:00 6.11181 C 64.0868 % -0.16 C
73 15-04-2020 00:00:00 8.67361 C 64.9514 % 2.46 C
74 16-04-2020 00:00:00 12.83299 C 63.9514 % 6.19 C
75 17-04-2020 00:00:00 15.23854 C 69.5278 % 9.71 C
Sensor: Nr:Datum:Temp:Feuchte:Taupunkt:
Aussen-T/F 76 18-04-2020 00:00:00 14.52083 C 78.8333 % 10.89 C
77 19-04-2020 00:00:00 13.06597 C 78.2396 % 9.37 C
78 20-04-2020 00:00:00 12.5066 C 50.4653 % 2.51 C
79 21-04-2020 00:00:00 13.59583 C 47.9965 % 2.81 C
80 22-04-2020 00:00:00 14.35 C 50.4549 % 4.2 C
81 23-04-2020 00:00:00 14.16042 C 57.7604 % 5.97 C
82 24-04-2020 00:00:00 13.96285 C 61.8542 % 6.77 C
83 25-04-2020 00:00:00 12.06389 C 62.5347 % 5.14 C
84 26-04-2020 00:00:00 11.44375 C 66.4514 % 5.42 C
85 27-04-2020 00:00:00 12.89201 C 66.5382 % 6.82 C
86 28-04-2020 00:00:00 12.69306 C 86.7639 % 10.55 C
87 29-04-2020 00:00:00 14.31979 C 76.7049 % 10.29 C
88 30-04-2020 00:00:00 12.21632 C 83.3299 % 9.48 C
89 01-05-2020 00:00:00 10.57674 C 86.4444 % 8.41 C
90 02-05-2020 00:00:00 9.93542 C 83.8403 % 7.33 C
91 03-05-2020 00:00:00 10.39028 C 77.2500 % 6.59 C
92 04-05-2020 00:00:00 11.82361 C 83.7986 % 9.18 C
93 05-05-2020 00:00:00 10.30833 C 68.8333 % 4.84 C
94 06-05-2020 00:00:00 10.34687 C 62.9375 % 3.61 C
95 07-05-2020 00:00:00 12.36771 C 67.0278 % 6.43 C
96 08-05-2020 00:00:00 15.11146 C 64.7535 % 8.53 C
97 09-05-2020 00:00:00 15.97396 C 71.7986 % 10.89 C
98 10-05-2020 00:00:00 15.5441 C 87.0729 % 13.4 C
99 11-05-2020 00:00:00 9.41007 C 72.6944 % 4.76 C
100 12-05-2020 00:00:00 7.67674 C 65.0833 % 1.54 C
Sensor: Nr:Datum:Temp:Feuchte:Taupunkt:
Aussen-T/F 101 13-05-2020 00:00:00 8.92604 C 67.5104 % 3.25 C
102 14-05-2020 00:00:00 9.71389 C 66.2535 % 3.73 C
103 15-05-2020 00:00:00 10.43264 C 60.9375 % 3.23 C
104 16-05-2020 00:00:00 11.17396 C 64.1319 % 4.66 C
105 17-05-2020 00:00:00 13.11528 C 63.3750 % 6.33 C
106 18-05-2020 00:00:00 15.67292 C 64.9167 % 9.1 C
107 19-05-2020 00:00:00 16.60729 C 65.8542 % 10.2 C
108 20-05-2020 00:00:00 17.77917 C 71.9375 % 12.65 C
109 21-05-2020 00:00:00 19.01562 C 69.2535 % 13.26 C
110 22-05-2020 00:00:00 19.97639 C 75.2535 % 15.46 C
111 23-05-2020 00:00:00 13.69236 C 87.6181 % 11.68 C
112 24-05-2020 00:00:00 13.58542 C 74.5799 % 9.16 C
113 25-05-2020 00:00:00 15.93854 C 74.9514 % 11.51 C
114 26-05-2020 00:00:00 14.58437 C 71.8056 % 9.56 C
115 27-05-2020 00:00:00 16.48611 C 64.8958 % 9.87 C
116 28-05-2020 00:00:00 17.49132 C 54.2049 % 8.15 C
117 29-05-2020 00:00:00 15.20764 C 57.9097 % 6.98 C
118 30-05-2020 00:00:00 15.6941 C 55.5278 % 6.83 C
119 31-05-2020 00:00:00 15.11597 C 60.7847 % 7.61 C
120 01-06-2020 00:00:00 17.87257 C 60.3785 % 10.1 C
121 02-06-2020 00:00:00 19.76701 C 57.8264 % 11.23 C
122 03-06-2020 00:00:00 19.96667 C 60.3333 % 12.06 C
123 04-06-2020 00:00:00 14.67257 C 91.4792 % 13.3 C
124 05-06-2020 00:00:00 11.51111 C 85.9722 % 9.25 C
125 06-06-2020 00:00:00 12.4684 C 81.1806 % 9.33 C
Sensor: Nr:Datum:Temp:Feuchte:Taupunkt:
Aussen-T/F 126 07-06-2020 00:00:00 13.39861 C 74.3194 % 8.93 C
127 08-06-2020 00:00:00 14.75035 C 72.9375 % 9.95 C
128 09-06-2020 00:00:00 13.99236 C 88.3715 % 12.1 C
129 10-06-2020 00:00:00 15.4 C 85.7326 % 13.02 C
130 11-06-2020 00:00:00 15.74271 C 85.5799 % 13.33 C
131 12-06-2020 00:00:00 19.42083 C 73.5938 % 14.58 C
132 13-06-2020 00:00:00 20.95799 C 70.8958 % 15.48 C
133 14-06-2020 00:00:00 18.87917 C 80.4340 % 15.44 C
134 15-06-2020 00:00:00 18.60291 C 80.5345 % 15.19 C
135 16-06-2020 00:00:00 18.0434 C 88.9236 % 16.19 C
136 17-06-2020 00:00:00 17.45903 C 89.6771 % 15.75 C
137 18-06-2020 00:00:00 18.51528 C 77.4028 % 14.49 C
138 19-06-2020 00:00:00 16.72674 C 84.4549 % 14.09 C
139 20-06-2020 00:00:00 16.94271 C 84.7535 % 14.36 C
140 21-06-2020 00:00:00 19.05278 C 74.7396 % 14.47 C
141 22-06-2020 00:00:00 18.83785 C 72.4236 % 13.77 C
142 23-06-2020 00:00:00 19.59583 C 68.6840 % 13.69 C
143 24-06-2020 00:00:00 21.22153 C 60.2153 % 13.21 C
144 25-06-2020 00:00:00 21.70278 C 67.7535 % 15.48 C
145 26-06-2020 00:00:00 21.67743 C 70.8264 % 16.15 C
146 27-06-2020 00:00:00 22.68785 C 72.4479 % 17.48 C
147 28-06-2020 00:00:00 19.86979 C 72.4236 % 14.77 C
148 29-06-2020 00:00:00 17.69792 C 71.6701 % 12.52 C
149 30-06-2020 00:00:00 16.88194 C 71.2639 % 11.65 C
150 01-07-2020 00:00:00 21.29896 C 71.3889 % 15.91 C
Sensor: Nr:Datum:Temp:Feuchte:Taupunkt:
Aussen-T/F 151 02-07-2020 00:00:00 18.73125 C 81.7639 % 15.55 C
152 03-07-2020 00:00:00 17.73958 C 72.1597 % 12.66 C
153 04-07-2020 00:00:00 19.09826 C 68.4722 % 13.16 C
154 05-07-2020 00:00:00 22.80243 C 71.1076 % 17.29 C
155 06-07-2020 00:00:00 16.79653 C 65.8646 % 10.38 C
156 07-07-2020 00:00:00 16.09792 C 67.7292 % 10.14 C
157 08-07-2020 00:00:00 15.87639 C 86.0139 % 13.54 C
158 09-07-2020 00:00:00 21.61424 C 74.6667 % 16.92 C
159 10-07-2020 00:00:00 18.63368 C 78.6215 % 14.85 C
160 11-07-2020 00:00:00 16.57431 C 67.3646 % 10.51 C
161 12-07-2020 00:00:00 16.85382 C 66.0139 % 10.47 C
162 13-07-2020 00:00:00 19.08542 C 59.6354 % 11.05 C
163 14-07-2020 00:00:00 18.66215 C 67.1389 % 12.45 C
164 15-07-2020 00:00:00 17.55208 C 72.7569 % 12.61 C
165 16-07-2020 00:00:00 16.0875 C 88.8715 % 14.25 C
166 17-07-2020 00:00:00 18.58611 C 80.2222 % 15.11 C
167 18-07-2020 00:00:00 19.51944 C 74.3264 % 14.83 C
168 19-07-2020 00:00:00 22.30451 C 63.0590 % 14.94 C
169 20-07-2020 00:00:00 19.42708 C 71.6215 % 14.17 C
170 21-07-2020 00:00:00 17.64722 C 62.2118 % 10.34 C
171 22-07-2020 00:00:00 17.13264 C 62.9931 % 10.04 C
172 23-07-2020 00:00:00 18.84618 C 60.0208 % 10.93 C
173 24-07-2020 00:00:00 21.21007 C 59.2118 % 12.94 C
174 25-07-2020 00:00:00 21.01562 C 67.9618 % 14.88 C
175 26-07-2020 00:00:00 20.87674 C 70.5660 % 15.33 C
Sensor: Nr:Datum:Temp:Feuchte:Taupunkt:
Aussen-T/F 176 27-07-2020 00:00:00 21.66215 C 63.9306 % 14.54 C
177 28-07-2020 00:00:00 22.91424 C 54.3299 % 13.21 C
178 29-07-2020 00:00:00 18.94583 C 61.6007 % 11.41 C
179 30-07-2020 00:00:00 20.4309 C 59.1424 % 12.19 C
180 31-07-2020 00:00:00 24.16007 C 52.9340 % 13.96 C
181 01-08-2020 00:00:00 21.98437 C 78.4896 % 18.07 C
182 02-08-2020 00:00:00 21.28472 C 73.8993 % 16.44 C

Maximal/Minimal-Werte vom 03.02.2020 - 02.08.2020

Sensor Min Max Avg
Temp
(Aussen-T/F)
-3.5 °C
24-03-2020  06:30:00
37.9 °C
31-07-2020  17:55:00
12.92 °C
Feuchte
(Aussen-T/F)
21 %
31-07-2020  17:15:00
98 %
07-02-2020  13:15:00
73.13 %
Taupunkt
(Aussen-T/F)
-5.05 C
23-03-2020  00:00:00
18.07 C
01-08-2020  00:00:00
8.01 C

Die Daten stammen von einer Davis Vantage Pro 2 Wetter-Station und werden unter Linux mit der Software wview2wettercgi und aufbereitet. Alle Angaben erfolgen ohne Gewähr für ihre Vollständigkeit oder Richtigkeit.
Kontakt: Rainer Krienke krienke@uni-koblenz.de . Meine Webseiten an der Uni Koblenz oder privat.
Version: $Revision: 0.78 $